Location: Fauquembergues
(50.6005°N, 2.0987°E)
Time: 10:56:23
(UTC+00:00)

Aureole 1 Rocket - Pass Details

Date: 14 July 2020
Orbit: 377 x 1380 km, 73.9° (Epoch: 06 August)

Event Time Altitude Azimuth Distance (km) Brightness Sun altitude
Exits shadow 02:25:54 15° 211° (SSW) 1,827 4.8 -10.7°
Maximum altitude 02:29:57 76° 296° (WNW) 832 3.7 -10.3°
Drops below altitude 10° 02:36:18 10° 23° (NNE) 2,776 7.8 -9.7°
Sets 02:39:16 0° 25° (NNE) 3,894 9.0 -9.5°
